Tracking 20945 objects as of 8-Jul-2020
HD Live streaming from Space Station
objects crossing your sky now

FENGYUN 1C DEB

Track FENGYUN 1C DEB now!
10-day predictions


NORAD ID: 31988
Int'l Code: 1999-025CPR
Perigee: 830.9 km
Apogee: 937.0 km
Inclination: 98.1 °
Period: 102.5 minutes
Semi major axis: 7254 km
RCS: 0.0166 m2 (small)
Launch date: May 10, 1999
Source: People's Republic of China (PRC)
Launch site: Taiyaun Space Center, China (TSC)

Note: This is SATELLITE DEBRIS
aabbcc
Your satellite tracking list
Your tracking list is empty




NASA's NSSDC Master Catalog

Two Line Element Set (TLE):
1 31988U 99025CPR 20183.42978038  .00000633  00000-0  40773-3 0  9995
2 31988  98.1258  57.9373 0073124 264.8593  94.4228 14.04927252666353
Source of the keplerian elements: AFSPC